TimeEST,TemperatureF,Dew PointF,Humidity,Sea Level PressureIn,VisibilityMPH,Wind Direction,Wind SpeedMPH,Gust SpeedMPH,PrecipitationIn,Events,Conditions,WindDirDegrees,DateUTC
12:05 AM,39.2,39.2,100,30.21,1.0,Calm,Calm,-,N/A,,Mist,0,2012-11-20 05:05:00
12:07 AM,39.2,39.2,100,30.21,0.8,Calm,Calm,-,N/A,,Mist,0,2012-11-20 05:07:00
12:21 AM,39.2,37.4,93,30.22,1.5,Calm,Calm,-,N/A,,Mostly Cloudy,0,2012-11-20 05:21:00
12:24 AM,39.2,37.4,93,30.21,4.0,Calm,Calm,-,N/A,,Mostly Cloudy,0,2012-11-20 05:24:00
12:35 AM,37.4,37.4,100,30.22,2.5,Calm,Calm,-,N/A,,Mostly Cloudy,0,2012-11-20 05:35:00
12:40 AM,37.4,37.4,100,30.21,1.2,Calm,Calm,-,N/A,,Mostly Cloudy,0,2012-11-20 05:40:00
12:44 AM,37.4,35.6,93,30.22,0.5,Calm,Calm,-,N/A,Fog,Fog,0,2012-11-20 05:44:00
12:54 AM,37.0,37.0,100,30.21,0.5,Calm,Calm,-,N/A,Fog,Fog,0,2012-11-20 05:54:00
1:29 AM,37.4,37.4,100,30.20,1.5,Calm,Calm,-,N/A,,Overcast,0,2012-11-20 06:29:00
1:31 AM,37.4,37.4,100,30.19,4.0,Calm,Calm,-,N/A,,Overcast,0,2012-11-20 06:31:00
1:44 AM,37.4,37.4,100,30.19,1.8,Calm,Calm,-,N/A,,Overcast,0,2012-11-20 06:44:00
1:49 AM,37.4,37.4,100,30.19,0.8,Calm,Calm,-,N/A,,Overcast,0,2012-11-20 06:49:00
1:52 AM,37.4,37.4,100,30.19,1.0,NNW,3.5,-,N/A,,Overcast,330,2012-11-20 06:52:00
1:54 AM,39.0,37.9,96,30.18,1.2,NNW,3.5,-,N/A,,Overcast,340,2012-11-20 06:54:00
2:02 AM,39.2,39.2,100,30.19,0.8,NNW,4.6,-,N/A,,Overcast,330,2012-11-20 07:02:00
2:21 AM,39.2,39.2,100,30.18,0.2,Calm,Calm,-,N/A,Fog,Fog,0,2012-11-20 07:21:00
2:46 AM,39.2,39.2,100,30.17,0.2,NNW,3.5,-,N/A,Fog,Fog,330,2012-11-20 07:46:00
2:54 AM,39.9,39.9,100,30.16,0.2,WNW,3.5,-,N/A,Fog,Fog,290,2012-11-20 07:54:00
3:38 AM,39.2,39.2,100,30.17,0.5,Calm,Calm,-,N/A,Fog,Fog,0,2012-11-20 08:38:00
3:54 AM,39.0,37.9,96,30.15,1.0,Calm,Calm,-,N/A,,Overcast,0,2012-11-20 08:54:00
3:58 AM,39.2,39.2,100,30.17,2.0,NNW,5.8,-,N/A,,Overcast,330,2012-11-20 08:58:00
4:06 AM,37.4,37.4,100,30.17,7.0,NW,4.6,-,N/A,,Overcast,320,2012-11-20 09:06:00
4:18 AM,37.4,37.4,100,30.17,8.0,Calm,Calm,-,N/A,,Scattered Clouds,0,2012-11-20 09:18:00
4:23 AM,37.4,37.4,100,30.17,1.5,Calm,Calm,-,N/A,,Scattered Clouds,0,2012-11-20 09:23:00
4:26 AM,37.4,37.4,100,30.16,1.0,Calm,Calm,-,N/A,,Mist,0,2012-11-20 09:26:00
4:38 AM,37.4,35.6,93,30.17,0.5,Calm,Calm,-,N/A,Fog,Fog,0,2012-11-20 09:38:00
4:46 AM,37.4,35.6,93,30.17,0.2,West,3.5,-,N/A,Fog,Fog,260,2012-11-20 09:46:00
4:54 AM,37.0,37.0,100,30.16,0.5,WSW,3.5,-,N/A,Fog,Fog,240,2012-11-20 09:54:00
5:08 AM,37.4,37.4,100,30.16,1.2,Calm,Calm,-,N/A,,Scattered Clouds,0,2012-11-20 10:08:00
5:12 AM,37.4,37.4,100,30.16,2.0,Calm,Calm,-,N/A,,Partly Cloudy,0,2012-11-20 10:12:00
5:21 AM,37.4,35.6,93,30.16,6.0,Calm,Calm,-,N/A,,Partly Cloudy,0,2012-11-20 10:21:00
5:54 AM,37.9,37.0,97,30.16,10.0,Calm,Calm,-,N/A,,Clear,0,2012-11-20 10:54:00
6:54 AM,37.9,36.0,93,30.17,10.0,NW,3.5,-,N/A,,Clear,320,2012-11-20 11:54:00
7:54 AM,39.0,37.9,96,30.18,7.0,Calm,Calm,-,N/A,,Mostly Cloudy,0,2012-11-20 12:54:00
8:54 AM,41.0,37.9,89,30.19,10.0,Calm,Calm,-,N/A,,Mostly Cloudy,0,2012-11-20 13:54:00
9:54 AM,44.1,41.0,89,30.19,10.0,Calm,Calm,-,N/A,,Mostly Cloudy,0,2012-11-20 14:54:00
10:54 AM,51.1,42.1,71,30.18,10.0,Calm,Calm,-,N/A,,Clear,0,2012-11-20 15:54:00
11:54 AM,57.9,37.9,47,30.13,10.0,North,6.9,-,N/A,,Partly Cloudy,350,2012-11-20 16:54:00
12:54 PM,60.1,32.0,35,30.09,10.0,North,11.5,19.6,N/A,,Clear,350,2012-11-20 17:54:00
1:54 PM,61.0,32.0,34,30.07,10.0,Variable,6.9,-,N/A,,Scattered Clouds,0,2012-11-20 18:54:00
2:54 PM,62.1,30.9,31,30.05,10.0,North,10.4,-,N/A,,Clear,350,2012-11-20 19:54:00
3:54 PM,61.0,28.9,30,30.06,10.0,North,8.1,-,N/A,,Clear,350,2012-11-20 20:54:00
4:54 PM,57.0,32.0,39,30.07,10.0,NNW,5.8,-,N/A,,Clear,330,2012-11-20 21:54:00
5:54 PM,53.1,33.1,47,30.08,10.0,NW,8.1,-,N/A,,Clear,320,2012-11-20 22:54:00
6:54 PM,50.0,33.1,52,30.10,10.0,NNW,4.6,-,N/A,,Clear,340,2012-11-20 23:54:00
7:54 PM,50.0,33.1,52,30.11,10.0,North,5.8,-,N/A,,Clear,360,2012-11-21 00:54:00
8:54 PM,46.9,33.1,59,30.12,10.0,Calm,Calm,-,N/A,,Clear,0,2012-11-21 01:54:00
9:54 PM,42.1,34.0,73,30.13,10.0,NNW,6.9,-,N/A,,Clear,330,2012-11-21 02:54:00
10:54 PM,39.9,33.1,77,30.13,10.0,Calm,Calm,-,N/A,,Clear,0,2012-11-21 03:54:00
11:54 PM,36.0,33.1,89,30.12,10.0,Calm,Calm,-,N/A,,Clear,0,2012-11-21 04:54:00